STARLINK-3789, 52283

Orbit data source: Space-Track

STARLINK-3789, 52283 is a payload satellite owned by SpaceX/Seattle (US) in LEO that was launched on Thu, 21 Apr 2022 UTC via an FALCON 9 launch vehicle from the Air Force Eastern Test Range (AFETR). Payload-class satellites include a variety of spacecraft equipped with specific instruments for various scientific and technological missions. These include communications satellites like Starlink; space stations such as the ISS; scientific satellites like the Hubble; Earth observation satellites from companies like Planet Labs, Umbra, and HawkEye 360; GPS; miniature CubeSats for education and research; and military/defense satellites.

Loading next visibility...
Identifier
52283, 2022-041Y
Orbit
LEO
Country
Flag of USUS
Related business
Manufacturer
SpaceX/Seattle
Mission
Operational Commercial Communications
Bus & Motor
STARLINK, Unknown motor
Mass
297 kg wet, ~275 kg dry
Launch date (UTC)
2022-04-21 (4 years ago)
Launch vehicle
FALCON 9
Launch site
Air Force Eastern Test Range (AFETR)
Object type
Payload
Rocket body
Debris
Shape & HBR
Box + 1 Pan, 10.1 m
Radar Cross Section
11.087 m², Large (>1 m²)

Expand to show TLE details & history
Last TLE update: 15 hours ago

TLE from 15 hours ago
0 STARLINK-3789
1 52283U 22041Y   26129.86991035  .00000265  00000-0  34751-4 0  9997
2 52283  53.2159 194.4680 0000882  68.2969 291.8117 15.08839128223604
Epoch: 2026-05-09T20:52Z
TLE epoch observation values (Epoch: 2026-05-09T20:52:40.254Z)
Latitude
-0.00001°
Longitude
13.61912°
Altitude
540.417 km
Speed
7.593 km/s
True Right ascension
12h 57m 52s
True Declination
0° 00' 00"
Sunlit
Object was in full shadow at epoch
Visualization orbit readout
Latitude
Unknown
Longitude
Unknown
Altitude
Unknown
Speed
Unknown
Apparent Right ascension
Unknown
Apparent Declination
Unknown
Sunlit
N/A
Visualization observer readout
Local Sidereal Time
19:47:39
Azimuth
Unknown
Elevation
Unknown
Doppler factor
Unknown
Orbital elements
Apogee altitude
540.601 km
Perigee altitude
539.381 km
Semi-major axis
6,918.128 km
Eccentricity
0.00009
Inclination
53.2159°
RAAN
194.468°
Arg. of periapsis
68.2969°
True anomaly
291.80232°
Mean anomaly
291.8117°
Eccentric anomaly
291.80701°
Mean motion
3.7719 °/min
Orbital period
95.44 mins
BSTAR
0.000034751
Loading maneuver chart data...
Computing Atmospheric mass density...
Loading historical data...
Loading historical data...
Loading historical data...
Loading historical data...
Loading historical data...
Loading historical data...
Loading historical data...

Documentation

Showing up to 5 results
|